Time,TemperatureF,DewpointF,PressureIn,WindDirection,WindDirectionDegrees,WindSpeedMPH,WindSpeedGustMPH,Humidity,HourlyPrecipIn,Conditions,Clouds,dailyrainin,SoftwareType,DateUTC
2013-11-16 06:56:00,54.6,52.9,30.04,South,188,9.0,9.0,94,0.00,,---,0.00,VWS V13.01,2013-11-16 12:56:00,
2013-11-16 06:57:00,54.6,52.9,30.04,SSW,192,11.0,12.0,94,0.00,,---,0.00,VWS V13.01,2013-11-16 12:57:00,
2013-11-16 06:58:00,54.7,52.7,30.04,SSW,193,9.0,13.0,93,0.00,,---,0.00,VWS V13.01,2013-11-16 12:58:00,
2013-11-16 06:59:00,54.7,52.7,30.04,SSW,192,5.0,13.0,93,0.00,,---,0.00,VWS V13.01,2013-11-16 12:59:00,
2013-11-16 07:00:00,54.7,53.0,30.04,SSW,196,6.0,13.0,94,0.00,,---,0.00,VWS V13.01,2013-11-16 13:00:00,
2013-11-16 07:01:00,54.8,53.1,30.04,SSW,209,10.0,11.0,94,0.00,,---,0.00,VWS V13.01,2013-11-16 13:01:00,
2013-11-16 07:02:00,54.8,53.1,30.04,SSW,210,6.0,11.0,94,0.00,,---,0.00,VWS V13.01,2013-11-16 13:02:00,
2013-11-16 07:03:00,54.8,53.1,30.04,SSW,210,5.0,11.0,94,0.00,,---,0.00,VWS V13.01,2013-11-16 13:03:00,
2013-11-16 07:04:00,54.8,53.1,30.04,SSW,210,6.0,11.0,94,0.00,,---,0.00,VWS V13.01,2013-11-16 13:04:00,
2013-11-16 07:05:00,54.8,53.1,30.04,SSW,209,5.0,11.0,94,0.00,,---,0.00,VWS V13.01,2013-11-16 13:05:00,
2013-11-16 07:06:00,54.9,53.2,30.04,SSW,209,6.0,11.0,94,0.00,,---,0.00,VWS V13.01,2013-11-16 13:06:00,
2013-11-16 07:07:00,54.9,53.2,30.04,SSW,209,6.0,11.0,94,0.00,,---,0.00,VWS V13.01,2013-11-16 13:07:00,
2013-11-16 07:08:00,54.9,53.2,30.04,SSW,209,4.0,11.0,94,0.00,,---,0.00,VWS V13.01,2013-11-16 13:08:00,
2013-11-16 07:09:00,54.9,52.9,30.04,SSW,202,7.0,11.0,93,0.00,,---,0.00,VWS V13.01,2013-11-16 13:09:00,
2013-11-16 07:10:00,54.9,52.9,30.04,South,190,8.0,12.0,93,0.00,,---,0.00,VWS V13.01,2013-11-16 13:10:00,
2013-11-16 07:11:00,55.0,53.0,30.04,SSW,194,15.0,15.0,93,0.00,,---,0.00,VWS V13.01,2013-11-16 13:11:00,
2013-11-16 07:12:00,55.0,53.0,30.04,SSW,195,11.0,15.0,93,0.00,,---,0.00,VWS V13.01,2013-11-16 13:12:00,
2013-11-16 07:13:00,55.1,53.1,30.04,SW,227,12.0,15.0,93,0.00,,---,0.00,VWS V13.01,2013-11-16 13:13:00,
2013-11-16 07:14:00,55.1,53.1,30.04,SSW,203,7.0,15.0,93,0.00,,---,0.00,VWS V13.01,2013-11-16 13:14:00,
2013-11-16 07:15:00,55.1,53.1,30.04,SSW,209,6.0,15.0,93,0.00,,---,0.00,VWS V13.01,2013-11-16 13:15:00,
2013-11-16 07:16:00,55.2,53.2,30.04,SSW,205,6.0,15.0,93,0.00,,---,0.00,VWS V13.01,2013-11-16 13:16:00,
2013-11-16 07:17:00,55.2,53.2,30.04,SSW,213,6.0,15.0,93,0.00,,---,0.00,VWS V13.01,2013-11-16 13:17:00,
2013-11-16 07:18:00,55.2,53.2,30.04,SSW,210,4.0,15.0,93,0.00,,---,0.00,VWS V13.01,2013-11-16 13:18:00,
2013-11-16 07:19:00,55.2,53.2,30.04,SSW,211,7.0,15.0,93,0.00,,---,0.00,VWS V13.01,2013-11-16 13:19:00,
2013-11-16 07:20:00,55.2,53.2,30.04,SW,214,7.0,15.0,93,0.00,,---,0.00,VWS V13.01,2013-11-16 13:20:00,
2013-11-16 07:21:00,55.3,53.6,30.04,SW,217,7.0,15.0,94,0.00,,---,0.00,VWS V13.01,2013-11-16 13:21:00,
2013-11-16 07:22:00,55.3,53.6,30.04,South,179,8.0,15.0,94,0.00,,---,0.00,VWS V13.01,2013-11-16 13:22:00,
2013-11-16 07:23:00,55.3,53.6,30.03,SSW,211,10.0,15.0,94,0.00,,---,0.00,VWS V13.01,2013-11-16 13:23:00,
2013-11-16 07:24:00,55.3,53.6,30.03,SSW,210,7.0,15.0,94,0.00,,---,0.00,VWS V13.01,2013-11-16 13:24:00,
2013-11-16 07:25:00,55.4,53.7,30.04,SW,227,9.0,15.0,94,0.00,,---,0.00,VWS V13.01,2013-11-16 13:25:00,
2013-11-16 07:26:00,55.4,53.7,30.04,SW,216,9.0,15.0,94,0.00,,---,0.00,VWS V13.01,2013-11-16 13:26:00,
2013-11-16 07:27:00,55.4,53.7,30.04,SSW,202,14.0,15.0,94,0.00,,---,0.00,VWS V13.01,2013-11-16 13:27:00,
2013-11-16 07:28:00,55.4,53.7,30.03,SSW,200,10.0,16.0,94,0.00,,---,0.00,VWS V13.01,2013-11-16 13:28:00,
2013-11-16 07:29:00,55.4,53.7,30.03,SSW,207,12.0,16.0,94,0.00,,---,0.00,VWS V13.01,2013-11-16 13:29:00,
2013-11-16 07:30:00,55.4,53.7,30.03,SSW,207,6.0,16.0,94,0.00,,---,0.00,VWS V13.01,2013-11-16 13:30:00,
2013-11-16 07:31:00,55.5,53.8,30.03,SSW,211,12.0,14.0,94,0.00,,---,0.00,VWS V13.01,2013-11-16 13:31:00,
2013-11-16 07:32:00,55.5,53.8,30.03,South,171,5.0,14.0,94,0.00,,---,0.00,VWS V13.01,2013-11-16 13:32:00,
2013-11-16 07:33:00,55.5,53.8,30.03,SSW,210,10.0,14.0,94,0.00,,---,0.00,VWS V13.01,2013-11-16 13:33:00,
2013-11-16 07:34:00,55.5,53.8,30.03,SSW,207,7.0,14.0,94,0.00,,---,0.00,VWS V13.01,2013-11-16 13:34:00,
2013-11-16 07:35:00,55.5,53.8,30.03,SW,218,7.0,14.0,94,0.00,,---,0.00,VWS V13.01,2013-11-16 13:35:00,
2013-11-16 07:36:00,55.6,53.9,30.04,SSW,206,11.0,15.0,94,0.00,,---,0.00,VWS V13.01,2013-11-16 13:36:00,
2013-11-16 07:37:00,55.6,53.9,30.04,SSW,205,10.0,15.0,94,0.00,,---,0.00,VWS V13.01,2013-11-16 13:37:00,
2013-11-16 07:38:00,55.6,53.9,30.04,SSW,207,16.0,17.0,94,0.00,,---,0.00,VWS V13.01,2013-11-16 13:38:00,
2013-11-16 07:39:00,55.7,54.0,30.04,SSW,200,8.0,17.0,94,0.00,,---,0.00,VWS V13.01,2013-11-16 13:39:00,
2013-11-16 07:40:00,55.7,54.0,30.04,SSW,203,12.0,17.0,94,0.00,,---,0.00,VWS V13.01,2013-11-16 13:40:00,
2013-11-16 07:41:00,55.7,54.0,30.04,SW,221,7.0,17.0,94,0.00,,---,0.00,VWS V13.01,2013-11-16 13:41:00,
2013-11-16 07:42:00,55.7,54.0,30.04,SW,221,6.0,17.0,94,0.00,,---,0.00,VWS V13.01,2013-11-16 13:42:00,
2013-11-16 07:43:00,55.8,54.1,30.04,South,169,16.0,17.0,94,0.00,,---,0.00,VWS V13.01,2013-11-16 13:43:00,
2013-11-16 07:44:00,55.8,54.1,30.04,SW,221,8.0,17.0,94,0.00,,---,0.00,VWS V13.01,2013-11-16 13:44:00,
2013-11-16 07:45:00,55.8,54.1,30.03,SW,214,6.0,17.0,94,0.00,,---,0.00,VWS V13.01,2013-11-16 13:45:00,
2013-11-16 07:46:00,55.8,54.1,30.04,SW,231,10.0,17.0,94,0.00,,---,0.00,VWS V13.01,2013-11-16 13:46:00,
2013-11-16 07:47:00,55.9,54.2,30.04,SW,230,15.0,17.0,94,0.00,,---,0.00,VWS V13.01,2013-11-16 13:47:00,
2013-11-16 07:48:00,55.9,54.2,30.04,SSW,200,10.0,17.0,94,0.00,,---,0.00,VWS V13.01,2013-11-16 13:48:00,
2013-11-16 07:49:00,55.9,54.2,30.04,SSW,209,8.0,17.0,94,0.00,,---,0.00,VWS V13.01,2013-11-16 13:49:00,
2013-11-16 07:50:00,55.9,54.2,30.04,SW,219,15.0,17.0,94,0.00,,---,0.00,VWS V13.01,2013-11-16 13:50:00,
2013-11-16 07:51:00,56.0,54.3,30.04,SSW,209,13.0,17.0,94,0.00,,---,0.00,VWS V13.01,2013-11-16 13:51:00,
2013-11-16 07:52:00,56.0,54.3,30.04,SW,221,6.0,17.0,94,0.00,,---,0.00,VWS V13.01,2013-11-16 13:52:00,
2013-11-16 07:53:00,56.1,54.4,30.03,SW,223,11.0,17.0,94,0.00,,---,0.00,VWS V13.01,2013-11-16 13:53:00,
2013-11-16 07:54:00,56.1,54.4,30.04,SSW,211,9.0,17.0,94,0.00,,---,0.00,VWS V13.01,2013-11-16 13:54:00,
2013-11-16 07:55:00,56.1,54.4,30.04,SW,227,11.0,17.0,94,0.00,,---,0.00,VWS V13.01,2013-11-16 13:55:00,
2013-11-16 07:56:00,56.2,54.5,30.04,SW,218,9.0,17.0,94,0.00,,---,0.00,VWS V13.01,2013-11-16 13:56:00,
2013-11-16 07:57:00,56.2,54.5,30.04,SSW,207,11.0,17.0,94,0.00,,---,0.00,VWS V13.01,2013-11-16 13:57:00,
2013-11-16 07:58:00,56.2,54.5,30.04,SW,217,10.0,17.0,94,0.00,,---,0.00,VWS V13.01,2013-11-16 13:58:00,
2013-11-16 07:59:00,56.3,54.6,30.04,SSW,205,10.0,17.0,94,0.00,,---,0.00,VWS V13.01,2013-11-16 13:59:00,
2013-11-16 08:00:00,56.3,54.6,30.04,SSW,213,11.0,17.0,94,0.00,,---,0.00,VWS V13.01,2013-11-16 14:00:00,
2013-11-16 08:01:00,56.3,54.6,30.04,SSW,204,13.0,13.0,94,0.00,,---,0.00,VWS V13.01,2013-11-16 14:01:00,
2013-11-16 08:02:00,56.4,54.7,30.04,SSW,206,12.0,16.0,94,0.00,,---,0.00,VWS V13.01,2013-11-16 14:02:00,
2013-11-16 08:03:00,56.4,54.7,30.04,SW,225,6.0,16.0,94,0.00,,---,0.00,VWS V13.01,2013-11-16 14:03:00,
2013-11-16 08:04:00,56.4,54.7,30.04,SSW,207,8.0,16.0,94,0.00,,---,0.00,VWS V13.01,2013-11-16 14:04:00,
2013-11-16 08:05:00,56.5,54.8,30.04,SW,216,16.0,18.0,94,0.00,,---,0.00,VWS V13.01,2013-11-16 14:05:00,
2013-11-16 08:06:00,56.5,54.8,30.04,South,190,7.0,18.0,94,0.00,,---,0.00,VWS V13.01,2013-11-16 14:06:00,
2013-11-16 08:07:00,56.6,54.6,30.04,South,187,11.0,18.0,93,0.00,,---,0.00,VWS V13.01,2013-11-16 14:07:00,
2013-11-16 08:08:00,56.6,54.6,30.03,South,178,19.0,19.0,93,0.00,,---,0.00,VWS V13.01,2013-11-16 14:08:00,
2013-11-16 08:09:00,56.6,54.9,30.03,SSW,205,11.0,19.0,94,0.00,,---,0.00,VWS V13.01,2013-11-16 14:09:00,
2013-11-16 08:10:00,56.6,54.6,30.04,WSW,238,10.0,19.0,93,0.00,,---,0.00,VWS V13.01,2013-11-16 14:10:00,
2013-11-16 08:11:00,56.7,54.7,30.04,SSW,205,12.0,19.0,93,0.00,,---,0.00,VWS V13.01,2013-11-16 14:11:00,
2013-11-16 08:12:00,56.7,54.7,30.04,SW,215,10.0,19.0,93,0.00,,---,0.00,VWS V13.01,2013-11-16 14:12:00,
2013-11-16 08:13:00,56.7,54.7,30.03,SSW,192,15.0,19.0,93,0.00,,---,0.00,VWS V13.01,2013-11-16 14:13:00,
2013-11-16 08:14:00,56.8,54.8,30.03,SSW,209,14.0,19.0,93,0.00,,---,0.00,VWS V13.01,2013-11-16 14:14:00,
2013-11-16 08:15:00,56.8,54.8,30.03,SSW,206,10.0,19.0,93,0.00,,---,0.00,VWS V13.01,2013-11-16 14:15:00,
2013-11-16 08:16:00,56.9,54.9,30.03,SSW,196,11.0,19.0,93,0.00,,---,0.00,VWS V13.01,2013-11-16 14:16:00,
2013-11-16 08:17:00,56.9,54.9,30.03,SW,219,13.0,19.0,93,0.00,,---,0.00,VWS V13.01,2013-11-16 14:17:00,
2013-11-16 08:18:00,56.9,54.9,30.03,SSW,206,14.0,19.0,93,0.00,,---,0.00,VWS V13.01,2013-11-16 14:18:00,
2013-11-16 08:19:00,56.9,54.9,30.03,SW,221,16.0,19.0,93,0.00,,---,0.00,VWS V13.01,2013-11-16 14:19:00,
2013-11-16 08:20:00,57.0,55.0,30.03,SW,233,15.0,19.0,93,0.00,,---,0.00,VWS V13.01,2013-11-16 14:20:00,
2013-11-16 08:21:00,57.0,55.0,30.03,South,190,11.0,19.0,93,0.00,,---,0.00,VWS V13.01,2013-11-16 14:21:00,
2013-11-16 08:22:00,57.1,55.1,30.03,SSW,198,14.0,19.0,93,0.00,,---,0.00,VWS V13.01,2013-11-16 14:22:00,
2013-11-16 08:23:00,57.1,55.1,30.03,SSW,211,15.0,19.0,93,0.00,,---,0.00,VWS V13.01,2013-11-16 14:23:00,
2013-11-16 08:24:00,57.1,55.1,30.03,SW,220,12.0,19.0,93,0.00,,---,0.00,VWS V13.01,2013-11-16 14:24:00,
2013-11-16 08:25:00,57.1,55.1,30.03,SW,217,12.0,19.0,93,0.00,,---,0.00,VWS V13.01,2013-11-16 14:25:00,
2013-11-16 08:26:00,57.2,55.2,30.03,SW,230,7.0,19.0,93,0.00,,---,0.00,VWS V13.01,2013-11-16 14:26:00,
2013-11-16 08:27:00,57.2,55.2,30.03,SSW,206,11.0,19.0,93,0.00,,---,0.00,VWS V13.01,2013-11-16 14:27:00,
2013-11-16 08:28:00,57.2,55.2,30.03,SSW,202,12.0,19.0,93,0.00,,---,0.00,VWS V13.01,2013-11-16 14:28:00,
2013-11-16 08:29:00,57.2,55.2,30.03,SW,226,11.0,19.0,93,0.00,,---,0.00,VWS V13.01,2013-11-16 14:29:00,
2013-11-16 08:30:00,57.2,55.2,30.03,SSW,206,9.0,19.0,93,0.00,,---,0.00,VWS V13.01,2013-11-16 14:30:00,
2013-11-16 08:31:00,57.3,55.3,30.03,SSW,202,6.0,11.0,93,0.00,,---,0.00,VWS V13.01,2013-11-16 14:31:00,
2013-11-16 08:32:00,57.3,55.3,30.03,SW,216,6.0,11.0,93,0.00,,---,0.00,VWS V13.01,2013-11-16 14:32:00,
2013-11-16 08:33:00,57.3,55.3,30.03,SW,223,12.0,14.0,93,0.00,,---,0.00,VWS V13.01,2013-11-16 14:33:00,
2013-11-16 08:34:00,57.3,55.3,30.03,SSW,211,11.0,16.0,93,0.00,,---,0.00,VWS V13.01,2013-11-16 14:34:00,
2013-11-16 08:35:00,57.4,55.4,30.03,South,174,10.0,16.0,93,0.00,,---,0.00,VWS V13.01,2013-11-16 14:35:00,
2013-11-16 08:36:00,57.4,55.4,30.03,SW,217,7.0,16.0,93,0.00,,---,0.00,VWS V13.01,2013-11-16 14:36:00,
2013-11-16 08:37:00,57.4,55.4,30.03,SSW,209,12.0,16.0,93,0.00,,---,0.00,VWS V13.01,2013-11-16 14:37:00,
2013-11-16 08:38:00,57.4,55.4,30.03,SSW,200,16.0,16.0,93,0.00,,---,0.00,VWS V13.01,2013-11-16 14:38:00,
2013-11-16 08:39:00,57.5,55.5,30.03,SSW,209,6.0,16.0,93,0.00,,---,0.00,VWS V13.01,2013-11-16 14:39:00,
2013-11-16 08:40:00,57.5,55.5,30.03,SSW,207,6.0,16.0,93,0.00,,---,0.00,VWS V13.01,2013-11-16 14:40:00,
2013-11-16 08:41:00,57.6,55.6,30.03,SW,221,7.0,16.0,93,0.00,,---,0.00,VWS V13.01,2013-11-16 14:41:00,
2013-11-16 08:42:00,57.6,55.6,30.03,SW,220,6.0,16.0,93,0.00,,---,0.00,VWS V13.01,2013-11-16 14:42:00,
2013-11-16 08:43:00,57.6,55.6,30.02,SW,219,6.0,16.0,93,0.00,,---,0.00,VWS V13.01,2013-11-16 14:43:00,
2013-11-16 08:44:00,57.7,55.7,30.02,SW,214,5.0,16.0,93,0.00,,---,0.00,VWS V13.01,2013-11-16 14:44:00,